This is the latest recevied weather packets stored in our database for station/object SM2NLD. If no packets are shown the sender has not sent any weather packets the latest 1 day(s).
| Time | Temp. | Humidity | Pressure | Rain* | Wind** | Luminosity | Snow |
|---|---|---|---|---|---|---|---|
| 1778053966 | 3.33° C | 11% | 995.7 hPa | 0 mm | - | - | - |
| 1778053366 | 2.78° C | 11% | 995.6 hPa | 0 mm | - | - | - |
| 1778052769 | 3.33° C | 11% | 995.5 hPa | 0 mm | - | - | - |
| 1778052442 | 3.33° C | 11% | 995.4 hPa | 0 mm | - | - | - |
| 1778052166 | 3.33° C | 11% | 995.2 hPa | 0 mm | - | - | - |
| 1778051866 | 3.33° C | 11% | 995.2 hPa | 0 mm | - | - | - |
| 1778051242 | 2.78° C | 11% | 995 hPa | 0 mm | - | - | - |
| 1778050666 | 2.78° C | 11% | 995.1 hPa | 0 mm | - | - | - |
| 1778050444 | 2.78° C | 11% | 995 hPa | 0 mm | - | - | - |
| 1778049766 | 2.78° C | 11% | 994.9 hPa | 0 mm | - | - | - |
| 1778049469 | 2.78° C | 11% | 994.9 hPa | 0 mm | - | - | - |
| 1778049166 | 2.22° C | 11% | 994.9 hPa | 0 mm | - | - | - |
| 1778048823 | 2.22° C | 11% | 994.8 hPa | 0 mm | - | - | - |
| 1778048566 | 2.22° C | 11% | 994.7 hPa | 0 mm | - | - | - |
| 1778048283 | 2.22° C | 11% | 994.8 hPa | 0 mm | - | - | - |
| 1778048267 | 2.22° C | 11% | 994.8 hPa | 0 mm | - | - | - |
| 1778047969 | 1.67° C | 11% | 994.8 hPa | 0 mm | - | - | - |
| 1778047641 | 1.67° C | 11% | 994.8 hPa | 0 mm | - | - | - |
| 1778047204 | 1.67° C | 11% | 994.8 hPa | 0 mm | - | - | - |
| 1778046766 | 1.67° C | 11% | 994.6 hPa | 0 mm | - | - | - |
| 1778046304 | 1.67° C | 11% | 994.6 hPa | 0 mm | - | - | - |
| 1778045865 | 1.11° C | 11% | 994.5 hPa | 0 mm | - | - | - |
| 1778045241 | 1.11° C | 11% | 994.4 hPa | 0 mm | - | - | - |
| 1778044965 | 0.56° C | 11% | 994.4 hPa | 0 mm | - | - | - |
| 1778044144 | 0.56° C | 11% | 994.2 hPa | 0 mm | - | - | - |
* Rain latest hour (hover to see other rain measurements)
** Current wind speed in m/s (hover to see current wind gust speed)